Tracking 29777 objects as of 7-Oct-2024
HD Live streaming from Space Station
objects crossing your sky now

SL-6 R/B(2)

Track SL-6 R/B(2) now!


NORAD ID: 19810
Int'l Code: 1989-014D
Perigee: 1,798.1 km
Apogee: 37,408.9 km
Inclination: 64.1 °
Period: 694.4 minutes
Semi major axis: 25974 km
RCS: 8.2817 m2 (large)
Launch date: February 15, 1989
Source: Commonwealth of Independent States (former USSR) (CIS)
Launch site: TYURATAM MISSILE AND SPACE COMPLEX (TTMTR)

Note: This is a ROCKET BODY
Your satellite tracking list
Your tracking list is empty




NASA's NSSDC Master Catalog

Two Line Element Set (TLE):
1 19810U 89014D   24274.84977348  .00000785  00000-0  00000-0 0  9990
2 19810  64.0862 121.4281 6854940 253.7870  25.9625  2.07387295269643
Source of the keplerian elements: AFSPC